Regional Weather Roundup
Issued by NWS

Home | Current Version | Previous Version | Text Only | Print | Product List | Glossary On
Versions: 1 2 3 4 5 6 7 8 9 10 11 12 13 14 15 16 17 18 19 20 21 22 23 24 25 26 27 28 29 30 31 32 33 34 35 36 37 38 39 40 41 42 43 44 45 46 47 48 49 50
000
ASCA44 KEWX 181220
RWRMX

LATIN AMERICA AND CARIBBEAN REGIONAL WEATHER ROUNDUP
NATIONAL WEATHER SERVICE AUSTIN/SAN ANTONIO TX
600 AM CST WED JAN 18 2017

NOTE: "FAIR" INDICATED FEW OR NO CLOUDS BELOW 12,000 FEET WITH NO
SIGNIFICANT WEATHER AND/OR OBSTRUCTIONS TO VISIBILITY.

BAJA CALIFORNIA

CITY           SKY/WX    TMP DP  RH WIND       PRES   REMARKS
S.J. DEL CABO    N/A    N/A N/A N/A MISG        N/A
TIJUANA        PTCLDY    46  41  81 CALM      30.17F

NORTHWESTERN MEXICO

CITY           SKY/WX    TMP DP  RH WIND       PRES   REMARKS
HERMOSILLO     PTCLDY    50  46  87 SE5       30.11  WCI  48

NORTHEASTERN MEXICO

CITY           SKY/WX    TMP DP  RH WIND       PRES   REMARKS
CHIHUAHUA      CLEAR     32  25  74 S9        30.18  WCI  24
MONCLOVA         N/A    N/A N/A N/A MISG        N/A
MONTERREY      CLOUDY    57  50  77 NW14      30.03R
NUEVO LAREDO   CLOUDY    52  50  93 NW9       30.07  FOG
REYNOSA        MOCLDY    59  55  88 W12       30.01
CD. VICTORIA     N/A    N/A N/A N/A MISG        N/A

WESTERN MEXICO

CITY           SKY/WX    TMP DP  RH WIND       PRES   REMARKS
AGUASCALIENTES PTCLDY    48  34  57 W5        30.27  WCI  46
COLIMA           N/A    N/A N/A N/A MISG        N/A
DEL BAJIO      MOCLDY    43  36  75 W5        30.31R WCI  40
GUADALAJARA    PTCLDY    48  43  81 CALM      30.22
MAZATLAN       CLOUDY    59  54  82 CALM      30.00F
P. VALLARTA    CLOUDY    66  66 100 CALM      29.97S
URUAPAN          N/A    N/A N/A N/A MISG        N/A
ZACATECAS      MOCLDY    48  36  61 SW7       30.28R WCI  45

CENTRAL MEXICO

CITY           SKY/WX    TMP DP  RH WIND       PRES   REMARKS
CUERNAVACA       N/A    N/A N/A N/A MISG        N/A
MEXICO CITY    CLEAR     48  37  66 NE2       30.32R
MORELIA        CLEAR     37  36  93 CALM      30.25
POZA RICA        N/A    N/A N/A N/A MISG        N/A
QUERETARO      PTCLDY    43  37  81 E6        30.31S WCI  39
S. LUIS POTOSI PTCLDY    45  30  57 CALM      30.22F
TAMPICO        CLEAR     72  70  94 CALM      29.98  FOG
TOLUCA         CLEAR     34  32  93 CALM      30.39R FOG

SOUTHERN MEXICO

CITY           SKY/WX    TMP DP  RH WIND       PRES   REMARKS
ACAPULCO       CLEAR     72  63  73 N2        29.94R
B. DE HUATULCO   N/A    N/A N/A N/A MISG        N/A
OAXACA         CLEAR     52  45  76 N6        30.27
P. ESCONDIDO   CLEAR     72  61  68 NE9       30.03
VERACRUZ       CLOUDY    72  72 100 NW2       29.96

YUCATAN PENINSULA

CITY           SKY/WX    TMP DP  RH WIND       PRES   REMARKS
CAMPECHE       PTCLDY    73  72  94 E14       29.99
CANCUN         PTCLDY    77  70  78 E8        30.06R
CHETUMAL       PTCLDY    70  68  94 CALM      30.02
CD. DEL CARMEN PTCLDY    75  70  83 SE12      29.99
COZUMEL        PTCLDY    73  72  94 SE6       30.04R
MERIDA           N/A    N/A N/A N/A MISG        N/A
MINATITLAN     CLEAR     72  68  88 CALM      29.94
TAPACHULA      PTCLDY    70  68  94 CALM      29.93R
TUX. GUTIERREZ CLEAR     61  61 100 CALM      30.03R

CENTRAL AMERICA

CITY           SKY/WX    TMP DP  RH WIND       PRES   REMARKS
BELIZE CITY    PTCLDY    75  72  88 E5        30.00R
MANAGUA        MOSUNNY   70  66  88 E7        29.94R

CARIBBEAN

CITY           SKY/WX    TMP DP  RH WIND       PRES   REMARKS
ARUBA          MOSUNNY   77  72  83 E9        29.97R
KINGSTON       PTCLDY    73  68  83 N7        30.00S
NASSAU         PTCLDY    66  66 100 CALM      30.19
SAN JUAN       MOSUNNY   75  68  78 NE12      30.08S
SANTO DOMINGO  PTCLDY    68  64  88 N7        30.06S
ST. CROIX      MOSUNNY   75  64  69 E9        30.08
ST. KITTS      MOSUNNY   79  68  69 NE16      30.03S
ST. MAARTEN    MOSUNNY   77  68  73 NE14      30.06R
ST. THOMAS     SUNNY     75  64  69 NE15      30.06S

$$





USA.gov is the U.S. government's official web portal to all federal, state and local government web resources and services.